UNSW-ECO (42723 NORAD) Tracking and Keplerian Element Data

This shows tracking and keplerian element data for the satellite.

Feedback or suggestion? Click here.




ElementValue
Catalog42723
NameUNSW-ECO
Epoch Orbit8469
Epoch Day319.89587096
Epoch Year2018
RAAN283.634
Inclination51.6353
Eccentricity0.0007392
Argument of Perigee102.054
Mean Anonmoly258.1299
Mean Motion16.02091433
Decay Rate0.00317779
L11 42723U 98067MC 18319.89587096 .00317779 54959-4 53801-3 0 9992
L22 42723 51.6353 283.6340 0007392 102.0540 258.1299 16.02091433 84694

Live tracking and technical data element details for UNSW-ECO (NORAD 42723). UNSW-ECO can be tracked NOW for your location showing map with azimuth and elevation plus other details from your city location.

Track the satellite on the map from your city or location and see movement details for azimuth, elevation, latitude, longitude, range, height, and movement on the map or in text.







IsCatalogInMostPopularTable: catalog: 42723, numindb: 146
Update: records affected: 1



GetName: 42723 UNSW-ECO

Hit Count: updated at: Fri, 16 Nov 2018 09:51:27 GMT